[[{"header":{"parameterUnit":"m.s-1","parameterCategory":2,"la1":30.2991,"la2":30.254,"lo1":-89.0895,"lo2":-89.0444,"dy":0.0017,"dx":0.0017,"nx":28,"ny":28,"refTime":"2025-12-30T09:00:00:Z","depth":"0","parameterNumber":2,"parameterNumberName":"U-component_of_CURRENTS"},"data":[0,0,0,0,0,0,0,0,0,0,0,0,0,0,0,0,0,0,0,0,0,0,0,0,0,0,0,0,0,0,0,0,0,0,0,0,0,0,0,0,0,0,0,0,0,0,0,0,0,0,0,0,0,0,0,0,0,0,0.317,0.3171,0,0.3265,0.3266,0.3267,0.3277,0.3277,0.3276,0.3276,0.3305,0.3306,0.3308,0,0,0,0,0,0,0,0,0,0,0,0,0,0.3018,0.302,0.317,0.3172,0.3173,0.3265,0.3266,0.3267,0.3277,0.3277,0.3276,0.3275,0.3305,0.3306,0.3308,0,0,0,0,0,0,0,0,0,0,0,0,0,0.3091,0.3021,0.317,0.3193,0.3197,0.3265,0.3266,0.3267,0.3277,0.3277,0.3276,0.3275,0.3304,0.3306,0.3308,0.3334,0,0,0.3314,0.3314,0,0,0,0,0,0,0,0,0.3086,0.3096,0.3188,0.3192,0.3196,0.3263,0.3224,0.3288,0.3278,0.3241,0.3276,0.3275,0.3289,0.3292,0.3305,0.3336,0.3337,0.3314,0.3315,0.3316,0.3316,0,0,0,0,0,0,0,0.3081,0.3092,0.3203,0.319,0.3195,0.3207,0.3215,0.3236,0.3263,0.3244,0.3247,0.3266,0.329,0.3303,0.3306,0.3337,0.3314,0.3315,0.3317,0.3317,0.3397,0.3398,0,0,0,0,0,0,0.308,0.3087,0.32,0.3206,0.3144,0.321,0.322,0.3238,0.3264,0.327,0.3266,0.3266,0.3301,0.3304,0.3307,0.3347,0.3316,0.3317,0.3319,0.3396,0.3397,0.3398,0,0,0,0,0,0,0.3076,0.3089,0.3196,0.3152,0.3168,0.3214,0.3234,0.324,0.3259,0.3283,0.3285,0.328,0.33,0.3304,0.3334,0.3348,0.3318,0.332,0.3395,0.3397,0.3398,0.3423,0,0,0,0,0,0,0.3072,0.3087,0.3097,0.3153,0.317,0.3242,0.3236,0.3243,0.3274,0.3275,0.3295,0.3297,0.33,0.3331,0.3336,0.335,0.3321,0.3394,0.3396,0.3397,0.3421,0.3426,0.3429,0,0,0,0,0,0.3066,0.3083,0.3097,0.3111,0.3184,0.3243,0.3253,0.328,0.3276,0.3291,0.3304,0.3296,0.3346,0.3334,0.3339,0.3354,0.3393,0.3395,0.3397,0.3419,0.3425,0.3429,0,0,0,0,0,0,0.3017,0.3088,0.3104,0.314,0.3192,0.3247,0.3266,0.3285,0.331,0.3308,0.3315,0.3319,0.3351,0.3351,0.3338,0.3383,0.3366,0.337,0.3381,0.3386,0.339,0.3384,0.3323,0,0,0,0,0,0.3015,0.3044,0.3115,0.3141,0.317,0.3218,0.3245,0.327,0.3304,0.3314,0.3327,0.3342,0.3366,0.3374,0.3395,0.3421,0.3427,0.3432,0.3436,0.344,0.3438,0.3466,0.3472,0.3406,0.3406,0.3406,0,0,0.3002,0.3045,0.3061,0.3133,0.3171,0.3215,0.3231,0.328,0.3308,0.3313,0.3342,0.3362,0.3378,0.3409,0.3422,0.3409,0.3464,0.3442,0.3445,0.3442,0.3469,0.3475,0.3481,0.3407,0.3407,0.3407,0,0,0.2996,0.3033,0.3061,0.3107,0.3179,0.3215,0.3231,0.3295,0.3315,0.3357,0.3366,0.3394,0.3424,0.3441,0.3452,0.3491,0.3489,0.3496,0.3506,0.3533,0.3538,0.3543,0.3567,0.3573,0.3492,0.3492,0.3492,0,0.2977,0.3023,0.3077,0.3119,0.3154,0.3213,0.3251,0.3288,0.3348,0.3368,0.3366,0.3427,0.3438,0.3479,0.3491,0.3499,0.3513,0.3485,0.3538,0.3542,0.3547,0.357,0.3577,0.3493,0.3493,0.3493,0.3493,0,0.3001,0.3036,0.3057,0.3125,0.317,0.3213,0.3281,0.3317,0.3345,0.3381,0.3433,0.346,0.3491,0.3503,0.3508,0.355,0.3551,0.3544,0.3523,0.3555,0.3577,0.3584,0.3495,0.3495,0.3494,0.3494,0,0,0.2957,0.3054,0.3058,0.3085,0.3178,0.3213,0.3269,0.3337,0.3367,0.3419,0.3457,0.3503,0.3521,0.3535,0.3552,0.3573,0.3619,0.357,0.3571,0.359,0.3682,0.3662,0.3668,0.3624,0.3625,0.3626,0.3687,0,0.2956,0.3015,0.3072,0.3118,0.3155,0.3225,0.3265,0.3331,0.3388,0.3439,0.3485,0.3528,0.3533,0.3553,0.3579,0.3619,0.3637,0.3603,0.3651,0.3653,0.3628,0.3675,0.3581,0.3626,0.3694,0.3695,0.3696,0,0.2958,0.2998,0.3043,0.3111,0.3133,0.3164,0.3241,0.3292,0.3385,0.3436,0.3499,0.3539,0.36,0.3587,0.3666,0.3647,0.3662,0.3682,0.3685,0.366,0.3646,0.3604,0.3636,0.3586,0.3706,0.3705,0.3704,0,0.2891,0.2971,0.2997,0.3025,0.3115,0.3137,0.3183,0.3278,0.3338,0.3436,0.3493,0.3565,0.3618,0.3651,0.3712,0.3689,0.3793,0.3762,0.3757,0.3756,0.3681,0.3671,0.3663,0.3798,0.3798,0.3798,0.3797,0,0.2864,0.2881,0.296,0.2973,0.3001,0.308,0.3124,0.3198,0.3311,0.3374,0.3478,0.3548,0.3637,0.3712,0.3732,0.3787,0.3813,0.377,0.3775,0.3688,0.3679,0.3635,0.3611,0.38,0.3799,0.3799,0.3798,0,0.2786,0.2841,0.2869,0.2946,0.297,0.2984,0.3095,0.3129,0.3257,0.3349,0.3385,0.356,0.3658,0.3744,0.3822,0.3823,0.3775,0.3865,0.3762,0.3753,0.3667,0.3648,0.3497,0.3391,0.3852,0.3852,0.3852,0,0.2752,0.276,0.2829,0.2837,0.2868,0.2912,0.294,0.3081,0.3141,0.3343,0.3379,0.3536,0.3633,0.3784,0.3823,0.3876,0.3768,0.3794,0.372,0.3661,0.3644,0.3491,0.34,0.3636,0.3634,0.3633,0.3632,0,0.2681,0.2702,0.2723,0.2748,0.2769,0.2803,0.2864,0.2921,0.3076,0.3183,0.3324,0.3427,0.3614,0.3662,0.377,0.3782,0.3638,0.3763,0.3727,0.3497,0.3304,0.3205,0.3602,0.3618,0.362,0.3621,0.3621,0.3622,0.2614,0.2606,0.2631,0.2643,0.2666,0.2677,0.2674,0.2771,0.2866,0.3007,0.3178,0.3303,0.3494,0.365,0.3641,0.3612,0.3547,0.3523,0.3515,0.3372,0.3227,0.3598,0.3604,0.3605,0.3606,0.3607,0.3607,0,0.2517,0.2518,0.2526,0.253,0.2505,0.2557,0.2602,0.2594,0.2652,0.2843,0.2967,0.3173,0.3285,0.341,0.3497,0.3403,0.3225,0.3318,0.309,0.3019,0.339,0.3342,0.326,0.326,0.326,0.326,0.326,0.326,0.2464,0.2427,0.2431,0.2363,0.2362,0.2299,0.2295,0.2325,0.2432,0.2565,0.2695,0.2859,0.3201,0.3434,0.3402,0.3303,0.304,0.2909,0.2873,0.3184,0.3202,0.3219,0.3168,0.305,0.305,0.2374,0.2369,0.2366]},{"header":{"parameterUnit":"m.s-1","parameterCategory":2,"la1":30.2991,"la2":30.254,"lo1":-89.0895,"lo2":-89.0444,"dy":0.0017,"dx":0.0017,"nx":28,"ny":28,"refTime":"2025-12-30T09:00:00:Z","depth":"0","parameterNumber":3,"parameterNumberName":"V-component_of_CURRENTS"},"data":[0,0,0,0,0,0,0,0,0,0,0,0,0,0,0,0,0,0,0,0,0,0,0,0,0,0,0,0,0,0,0,0,0,0,0,0,0,0,0,0,0,0,0,0,0,0,0,0,0,0,0,0,0,0,0,0,0,0,-0.0102,-0.0103,0,-0.0201,-0.0202,-0.0203,-0.0272,-0.0272,-0.0273,-0.0273,-0.0363,-0.0365,-0.0366,0,0,0,0,0,0,0,0,0,0,0,0,0,-0.0025,-0.0026,-0.0102,-0.0103,-0.0104,-0.0201,-0.0202,-0.0204,-0.0272,-0.0272,-0.0273,-0.0273,-0.0362,-0.0364,-0.0367,0,0,0,0,0,0,0,0,0,0,0,0,0,-0.0085,-0.0026,-0.0101,-0.0149,-0.0155,-0.0201,-0.0202,-0.0204,-0.0272,-0.0272,-0.0273,-0.0274,-0.0361,-0.0364,-0.0367,-0.0371,0,0,-0.0376,-0.0377,0,0,0,0,0,0,0,0,-0.0081,-0.0088,-0.0141,-0.0146,-0.0152,-0.0224,-0.0208,-0.0259,-0.0271,-0.0228,-0.0273,-0.0274,-0.0315,-0.0321,-0.0339,-0.0375,-0.0379,-0.0376,-0.0378,-0.0379,-0.038,0,0,0,0,0,0,0,-0.0077,-0.0084,-0.0141,-0.0142,-0.0149,-0.0184,-0.0193,-0.0218,-0.0266,-0.0232,-0.0237,-0.0247,-0.0318,-0.0336,-0.0342,-0.038,-0.0376,-0.0379,-0.038,-0.0382,-0.0418,-0.0417,0,0,0,0,0,0,-0.006,-0.008,-0.0138,-0.0144,-0.0117,-0.0185,-0.0195,-0.0201,-0.0266,-0.0277,-0.0246,-0.025,-0.0331,-0.0338,-0.0345,-0.0337,-0.0379,-0.0382,-0.0383,-0.0419,-0.0418,-0.0417,0,0,0,0,0,0,-0.0058,-0.0064,-0.0134,-0.0114,-0.0126,-0.0185,-0.0192,-0.0202,-0.0218,-0.0277,-0.0288,-0.025,-0.0332,-0.0341,-0.0364,-0.0341,-0.0383,-0.0386,-0.042,-0.0419,-0.0418,-0.033,0,0,0,0,0,0,-0.0055,-0.0063,-0.0056,-0.0113,-0.0126,-0.0147,-0.0191,-0.0204,-0.0223,-0.0229,-0.0284,-0.0293,-0.0333,-0.036,-0.0367,-0.0346,-0.0388,-0.0421,-0.0419,-0.0418,-0.0334,-0.0326,-0.032,0,0,0,0,0,-0.0052,-0.0034,-0.0055,-0.0062,-0.0117,-0.0146,-0.0155,-0.0201,-0.0222,-0.0219,-0.0263,-0.0292,-0.0356,-0.0361,-0.037,-0.035,-0.0422,-0.042,-0.0418,-0.0337,-0.0328,-0.032,0,0,0,0,0,0,0.0002,-0.0041,-0.0065,-0.0062,-0.0096,-0.0157,-0.0156,-0.019,-0.0223,-0.0227,-0.0286,-0.0298,-0.0312,-0.0341,-0.0346,-0.0356,-0.0391,-0.0391,-0.0327,-0.0318,-0.0311,-0.0285,-0.039,0,0,0,0,0,0.0017,0.0019,-0.0032,-0.0029,-0.004,-0.0097,-0.0113,-0.0145,-0.0185,-0.0201,-0.0242,-0.0281,-0.0311,-0.0322,-0.0357,-0.0358,-0.039,-0.035,-0.0342,-0.0336,-0.0321,-0.0358,-0.0352,-0.0411,-0.0411,-0.0412,0,0,0.0037,0.0015,0.0014,-0.0018,-0.0047,-0.0047,-0.0107,-0.0123,-0.0124,-0.0203,-0.0211,-0.026,-0.0308,-0.0318,-0.0325,-0.0338,-0.0335,-0.0334,-0.0328,-0.0316,-0.0355,-0.0349,-0.0344,-0.041,-0.041,-0.0411,0,0,0.0084,0.0061,0.008,0.0061,0.0027,-0.0005,-0.0003,-0.0056,-0.0079,-0.0099,-0.0155,-0.0187,-0.0232,-0.0262,-0.0283,-0.0252,-0.0301,-0.0262,-0.0197,-0.0232,-0.0228,-0.0224,-0.0253,-0.0253,-0.0251,-0.0251,-0.0251,0,0.0109,0.0124,0.0081,0.0096,0.0092,0.0023,0.0045,0.0015,-0.0041,-0.005,-0.0087,-0.0158,-0.0203,-0.0211,-0.0206,-0.0234,-0.0263,-0.0225,-0.0222,-0.0219,-0.0217,-0.0248,-0.0248,-0.0247,-0.0247,-0.0248,-0.0248,0,0.0168,0.018,0.0193,0.019,0.0183,0.0188,0.0145,0.0131,0.0091,0.0054,0.0026,-0.0049,-0.0087,-0.0108,-0.015,-0.0149,-0.0178,-0.0214,-0.0242,-0.0205,-0.0241,-0.0243,-0.024,-0.0242,-0.0243,-0.0244,0,0,0.0219,0.0233,0.0237,0.0258,0.0234,0.0237,0.0241,0.0226,0.0235,0.0168,0.0171,0.0102,0.0052,0.0025,-0.0035,-0.0068,-0.0085,-0.0125,-0.0129,-0.0147,-0.016,-0.0186,-0.0192,-0.0124,-0.0124,-0.0124,-0.0189,0,0.0276,0.0335,0.0321,0.0375,0.0403,0.0357,0.0367,0.0344,0.031,0.0294,0.0212,0.0188,0.0107,0.0087,0.0042,-0.0056,-0.0087,-0.0064,-0.0197,-0.02,-0.0224,-0.0194,-0.0187,-0.0245,-0.0192,-0.0192,-0.0193,0,0.0337,0.037,0.0437,0.0473,0.0481,0.0497,0.0509,0.0509,0.0468,0.0443,0.0399,0.0326,0.0269,0.0189,0.0056,0.0073,-0.0026,-0.0108,-0.0113,-0.0167,-0.0231,-0.0275,-0.0252,-0.0444,-0.0197,-0.0196,-0.0196,0,0.0398,0.0453,0.0513,0.0523,0.0547,0.0566,0.0571,0.0552,0.0574,0.0537,0.0546,0.045,0.0407,0.0272,0.0097,0.0078,-0.0056,-0.0107,-0.0222,-0.0225,-0.0259,-0.0265,-0.043,-0.0192,-0.0191,-0.0191,-0.0191,0,0.0463,0.0511,0.0546,0.0577,0.065,0.0635,0.0699,0.0687,0.0691,0.0732,0.0626,0.0634,0.0424,0.0314,0.0145,-0.0038,-0.002,-0.0198,-0.024,-0.0228,-0.0231,-0.0432,-0.0553,-0.0194,-0.0193,-0.0193,-0.0192,0,0.0518,0.0537,0.0613,0.0659,0.068,0.0728,0.0791,0.0835,0.0824,0.0875,0.0871,0.0777,0.0634,0.0419,0.0199,0.0036,-0.026,-0.0216,-0.0185,-0.0222,-0.0509,-0.0624,-0.0838,-0.0914,-0.0347,-0.0348,-0.0348,0,0.055,0.0594,0.0679,0.0731,0.0754,0.0826,0.0876,0.0898,0.096,0.0968,0.1005,0.0885,0.0825,0.0494,0.0183,-0.0104,-0.0296,-0.0292,-0.033,-0.0513,-0.0673,-0.0756,-0.0809,-0.0343,-0.0344,-0.0344,-0.0345,0,0.0612,0.0637,0.07,0.0811,0.0881,0.0975,0.1054,0.1128,0.1155,0.1203,0.1234,0.1185,0.0865,0.0579,0.0175,-0.0042,-0.0434,-0.0313,-0.0514,-0.0688,-0.0777,-0.0872,-0.0313,-0.035,-0.0349,-0.0349,-0.0349,-0.0348,0.0653,0.071,0.0791,0.0898,0.0985,0.1101,0.1196,0.129,0.1399,0.1484,0.1419,0.1395,0.0957,0.041,0.0089,-0.0484,-0.0495,-0.0654,-0.0779,-0.0843,-0.0923,-0.0369,-0.0448,-0.0448,-0.0448,-0.0448,-0.0448,0,0.0706,0.0771,0.0874,0.1,0.1108,0.1146,0.1301,0.1408,0.1551,0.1628,0.1661,0.1435,0.09,0.035,-0.0423,-0.085,-0.1,-0.1099,-0.1222,-0.1252,-0.0766,-0.0772,-0.0909,-0.0909,-0.0909,-0.0909,-0.0909,-0.0908,0.0733,0.0837,0.0893,0.1077,0.1172,0.133,0.1428,0.1582,0.1691,0.1796,0.1793,0.1752,0.1308,-0.0115,-0.1072,-0.1299,-0.1603,-0.1697,-0.1832,-0.1519,-0.1487,-0.1456,-0.1489,-0.1775,-0.1776,-0.2239,-0.2244,-0.2248]}],[{"header":{"parameterUnit":"m.s-1","parameterCategory":2,"la1":30.2991,"la2":30.254,"lo1":-89.0895,"lo2":-89.0444,"dy":0.0017,"dx":0.0017,"nx":28,"ny":28,"refTime":"2025-12-30T09:00:00:Z","depth":"2","parameterNumber":2,"parameterNumberName":"U-component_of_CURRENTS"},"data":[0,0,0,0,0,0,0,0,0,0,0,0,0,0,0,0,0,0,0,0,0,0,0,0,0,0,0,0,0,0,0,0,0,0,0,0,0,0,0,0,0,0,0,0,0,0,0,0,0,0,0,0,0,0,0,0,0,0,0.2819,0.282,0,0.2891,0.2891,0.2892,0.2911,0.2911,0.2911,0.291,0.2957,0.2958,0.296,0,0,0,0,0,0,0,0,0,0,0,0,0,0.271,0.2712,0.2818,0.282,0.2821,0.289,0.2891,0.2892,0.2911,0.2911,0.2911,0.291,0.2957,0.2958,0.296,0,0,0,0,0,0,0,0,0,0,0,0,0,0.2765,0.2712,0.2818,0.2841,0.2844,0.289,0.2891,0.2892,0.2911,0.2911,0.2911,0.291,0.2956,0.2958,0.296,0.2979,0,0,0.2967,0.2968,0,0,0,0,0,0,0,0,0.2762,0.2768,0.2836,0.2839,0.2843,0.2894,0.287,0.2921,0.2911,0.2883,0.291,0.291,0.2936,0.2939,0.295,0.2981,0.2983,0.2967,0.2968,0.2969,0.297,0,0,0,0,0,0,0,0.2758,0.2765,0.2844,0.2838,0.2842,0.2852,0.2859,0.288,0.2907,0.2885,0.2887,0.29,0.2937,0.2948,0.2951,0.2983,0.2967,0.2969,0.297,0.2971,0.3063,0.3065,0,0,0,0,0,0,0.2754,0.2762,0.2842,0.2847,0.2804,0.2854,0.2862,0.2875,0.2907,0.2913,0.29,0.29,0.2944,0.2949,0.2953,0.301,0.2969,0.2971,0.2972,0.3062,0.3064,0.3065,0,0,0,0,0,0,0.2752,0.2761,0.2839,0.2808,0.2819,0.2857,0.2872,0.2877,0.2902,0.292,0.2924,0.2921,0.2944,0.295,0.2987,0.301,0.2972,0.2974,0.3061,0.3063,0.3064,0.3103,0,0,0,0,0,0,0.2748,0.2759,0.2771,0.2808,0.2821,0.2876,0.2872,0.2879,0.291,0.2912,0.2939,0.2942,0.2945,0.2984,0.2989,0.3013,0.2976,0.3059,0.3062,0.3064,0.31,0.3105,0.311,0,0,0,0,0,0.2744,0.2759,0.2771,0.2781,0.2834,0.2877,0.2884,0.2908,0.2912,0.2928,0.2948,0.2942,0.3002,0.2987,0.2993,0.3017,0.3058,0.3061,0.3064,0.3097,0.3104,0.311,0,0,0,0,0,0,0.2715,0.2764,0.2777,0.2805,0.2843,0.2881,0.2901,0.2918,0.2947,0.2952,0.2961,0.2967,0.3009,0.3009,0.2993,0.3051,0.3028,0.3032,0.3052,0.3058,0.3063,0.3058,0.2977,0,0,0,0,0,0.2716,0.274,0.2787,0.281,0.2833,0.287,0.2892,0.2912,0.2943,0.2956,0.2976,0.2997,0.3023,0.3037,0.3059,0.3092,0.3095,0.311,0.3115,0.312,0.312,0.3148,0.3155,0.3074,0.3074,0.3074,0,0,0.2709,0.274,0.2753,0.2806,0.2837,0.2872,0.2882,0.2924,0.2952,0.2957,0.3,0.302,0.3037,0.3076,0.3094,0.3079,0.3147,0.3123,0.3127,0.3124,0.3151,0.3159,0.3166,0.3076,0.3075,0.3075,0,0,0.2711,0.2741,0.2764,0.2799,0.2855,0.2882,0.2898,0.2949,0.2973,0.3018,0.303,0.3064,0.3102,0.3119,0.3132,0.3179,0.3176,0.3188,0.3209,0.3236,0.3243,0.3249,0.327,0.3277,0.3187,0.3187,0.3188,0,0.2701,0.2738,0.2777,0.2813,0.2842,0.2888,0.2921,0.2955,0.301,0.3034,0.3036,0.3107,0.3121,0.3168,0.3184,0.3191,0.3204,0.3183,0.3243,0.3249,0.3254,0.3274,0.3281,0.319,0.3189,0.3189,0.3189,0,0.2723,0.2755,0.2774,0.2831,0.2869,0.2906,0.2962,0.3001,0.3034,0.3066,0.3127,0.3154,0.3193,0.3207,0.321,0.3261,0.3258,0.3249,0.3224,0.3264,0.3283,0.329,0.3193,0.3192,0.3191,0.3191,0,0,0.2691,0.2772,0.2779,0.2804,0.2883,0.2911,0.2972,0.3034,0.3069,0.3123,0.317,0.3221,0.324,0.3256,0.3272,0.3295,0.3347,0.329,0.329,0.3307,0.3409,0.338,0.3384,0.3351,0.3353,0.3354,0.3409,0,0.2696,0.2748,0.2796,0.2844,0.2876,0.2939,0.2984,0.3046,0.3102,0.3158,0.3205,0.3254,0.3258,0.3284,0.3312,0.3345,0.3367,0.3332,0.3371,0.3372,0.3338,0.3392,0.3142,0.3168,0.3416,0.3417,0.3418,0,0.2699,0.2735,0.278,0.2846,0.2867,0.29,0.2982,0.3032,0.3124,0.3174,0.3241,0.3281,0.3346,0.3332,0.3407,0.3388,0.3401,0.3415,0.3417,0.3379,0.3356,0.3168,0.3172,0.343,0.3429,0.3428,0.3427,0,0.2646,0.2719,0.2749,0.2774,0.2859,0.2889,0.2936,0.303,0.309,0.3188,0.3247,0.3319,0.3375,0.3405,0.3457,0.3435,0.3529,0.3498,0.348,0.3478,0.3266,0.3243,0.3535,0.3534,0.3534,0.3534,0.3534,0,0.2625,0.2645,0.2721,0.2736,0.2773,0.2847,0.2901,0.2971,0.3083,0.3145,0.3246,0.3315,0.3398,0.3468,0.348,0.352,0.3552,0.3496,0.3496,0.3274,0.3252,0.3473,0.3466,0.3536,0.3536,0.3535,0.3535,0,0.2561,0.2612,0.2644,0.2722,0.2748,0.2772,0.2885,0.2923,0.3047,0.3139,0.3178,0.334,0.3427,0.3502,0.3567,0.3558,0.3585,0.3583,0.3323,0.3292,0.3504,0.3497,0.3559,0.3558,0.3558,0.3558,0.3557,0,0.2532,0.2543,0.2615,0.2629,0.2663,0.2717,0.275,0.2886,0.2944,0.3138,0.3173,0.3323,0.3401,0.3524,0.3531,0.3562,0.3597,0.3332,0.324,0.3515,0.3509,0.3503,0.3498,0.2972,0.2967,0.2963,0.2959,0,0.2472,0.2497,0.252,0.2554,0.2584,0.2622,0.2689,0.2743,0.2891,0.2994,0.3119,0.3207,0.335,0.329,0.3365,0.3342,0.3309,0.3251,0.3604,0.3018,0.297,0.2962,0.2974,0.2923,0.2926,0.2929,0.2931,0.2932,0.2417,0.2413,0.2443,0.2463,0.2493,0.2507,0.2507,0.2598,0.2687,0.2801,0.2955,0.3,0.307,0.3067,0.3,0.2957,0.3174,0.3018,0.3027,0.3041,0.2977,0.2932,0.2865,0.2868,0.2871,0.2873,0.2876,0,0.2332,0.2337,0.2351,0.2363,0.2343,0.24,0.2444,0.2422,0.2467,0.26,0.2692,0.2536,0.2546,0.2599,0.2495,0.2533,0.2472,0.2417,0.2292,0.2334,0.237,0.2266,0.1968,0.1965,0.1962,0.1959,0,0,0.2286,0.2255,0.2259,0.2202,0.2209,0.2151,0.2147,0.2145,0.2202,0.2208,0.2223,0.2437,0.2542,0.2204,0.2194,0.2049,0.2162,0.1981,0.2722,0.2617,0.2648,0.2749,0.2643,0,0,0,0,0]},{"header":{"parameterUnit":"m.s-1","parameterCategory":2,"la1":30.2991,"la2":30.254,"lo1":-89.0895,"lo2":-89.0444,"dy":0.0017,"dx":0.0017,"nx":28,"ny":28,"refTime":"2025-12-30T09:00:00:Z","depth":"2","parameterNumber":3,"parameterNumberName":"V-component_of_CURRENTS"},"data":[0,0,0,0,0,0,0,0,0,0,0,0,0,0,0,0,0,0,0,0,0,0,0,0,0,0,0,0,0,0,0,0,0,0,0,0,0,0,0,0,0,0,0,0,0,0,0,0,0,0,0,0,0,0,0,0,0,0,0.0084,0.0083,0,0.0002,0.0001,0.0,-0.0063,-0.0064,-0.0064,-0.0065,-0.0148,-0.015,-0.0152,0,0,0,0,0,0,0,0,0,0,0,0,0,0.0135,0.0134,0.0084,0.0083,0.0082,0.0002,0.0001,-0.0,-0.0063,-0.0064,-0.0065,-0.0065,-0.0148,-0.015,-0.0152,0,0,0,0,0,0,0,0,0,0,0,0,0,0.0088,0.0134,0.0084,0.0042,0.0037,0.0002,0.0001,-0.0001,-0.0063,-0.0064,-0.0065,-0.0066,-0.0147,-0.015,-0.0152,-0.0153,0,0,-0.016,-0.0161,0,0,0,0,0,0,0,0,0.0091,0.0086,0.0049,0.0045,0.0039,-0.0021,-0.0012,-0.0051,-0.0063,-0.0026,-0.0065,-0.0066,-0.0105,-0.0111,-0.0126,-0.0157,-0.016,-0.016,-0.0162,-0.0163,-0.0164,0,0,0,0,0,0,0,0.0094,0.0089,0.0051,0.0048,0.0042,0.0009,0.0002,-0.002,-0.0061,-0.0029,-0.0034,-0.0041,-0.0107,-0.0123,-0.0128,-0.0161,-0.016,-0.0163,-0.0164,-0.0165,-0.0204,-0.0204,0,0,0,0,0,0,0.011,0.0093,0.0053,0.0048,0.0065,0.0009,0.0001,-0.0001,-0.0061,-0.007,-0.0041,-0.0044,-0.0118,-0.0125,-0.0131,-0.0132,-0.0163,-0.0166,-0.0167,-0.0205,-0.0204,-0.0204,0,0,0,0,0,0,0.0111,0.0107,0.0057,0.0069,0.006,0.001,0.0007,-0.0002,-0.0018,-0.0069,-0.0079,-0.0047,-0.0119,-0.0128,-0.015,-0.0136,-0.0167,-0.0169,-0.0205,-0.0205,-0.0204,-0.0135,0,0,0,0,0,0,0.0113,0.0108,0.0113,0.007,0.006,0.0048,0.0008,-0.0003,-0.0021,-0.0027,-0.0077,-0.0086,-0.012,-0.0146,-0.0152,-0.014,-0.0171,-0.0206,-0.0205,-0.0204,-0.0138,-0.0132,-0.0127,0,0,0,0,0,0.0115,0.0132,0.0114,0.0109,0.0068,0.0049,0.0041,0.0001,-0.002,-0.0018,-0.0058,-0.0084,-0.0144,-0.0147,-0.0155,-0.0143,-0.0207,-0.0205,-0.0204,-0.0141,-0.0133,-0.0127,0,0,0,0,0,0,0.0155,0.0126,0.0105,0.0111,0.0086,0.0039,0.0038,0.0009,-0.0022,-0.0028,-0.0079,-0.009,-0.0106,-0.0132,-0.0134,-0.0152,-0.0179,-0.0179,-0.0128,-0.0121,-0.0116,-0.0094,-0.0173,0,0,0,0,0,0.0167,0.0172,0.0134,0.0139,0.013,0.0085,0.0071,0.0045,0.0011,-0.0004,-0.0042,-0.0079,-0.0106,-0.0119,-0.0149,-0.0155,-0.0186,-0.0152,-0.0147,-0.0142,-0.0129,-0.0171,-0.0169,-0.02,-0.02,-0.02,0,0,0.0182,0.0167,0.0168,0.0147,0.0123,0.0126,0.0075,0.0064,0.0061,-0.0006,-0.0019,-0.0061,-0.0105,-0.0117,-0.0126,-0.0137,-0.0149,-0.014,-0.0136,-0.0126,-0.017,-0.0167,-0.0164,-0.0199,-0.0199,-0.0199,0,0,0.0223,0.0204,0.0223,0.021,0.0184,0.0158,0.016,0.0118,0.0096,0.0077,0.0027,-0.0005,-0.0046,-0.0076,-0.0096,-0.0075,-0.012,-0.0084,-0.0035,-0.0076,-0.0074,-0.0072,-0.0105,-0.0107,-0.0078,-0.0078,-0.0078,0,0.0241,0.0259,0.0226,0.0241,0.0238,0.0181,0.0201,0.0173,0.0127,0.0116,0.0085,0.0016,-0.0025,-0.0041,-0.0038,-0.0061,-0.0091,-0.0057,-0.0068,-0.0068,-0.0067,-0.0101,-0.0104,-0.0074,-0.0075,-0.0075,-0.0075,0,0.0294,0.0307,0.0319,0.032,0.0315,0.0322,0.0285,0.027,0.0233,0.0199,0.0167,0.0101,0.0063,0.0042,0.0006,-0.0005,-0.003,-0.0059,-0.0083,-0.006,-0.0097,-0.0102,-0.0069,-0.0071,-0.0072,-0.0072,0,0,0.0336,0.0354,0.0358,0.0377,0.0358,0.0363,0.0362,0.0347,0.035,0.0288,0.0284,0.0217,0.0172,0.0147,0.0092,0.0053,0.0023,0.0005,0.0001,-0.0022,-0.0062,-0.0085,-0.0092,-0.0012,-0.0012,-0.0012,-0.0089,0,0.0386,0.0442,0.0432,0.048,0.0506,0.0464,0.047,0.0447,0.0412,0.0392,0.0312,0.0287,0.0215,0.0197,0.0146,0.0055,0.0015,0.0047,-0.0085,-0.0088,-0.0108,-0.0097,-0.0073,-0.014,-0.0093,-0.0094,-0.0094,0,0.0441,0.0473,0.0533,0.0566,0.0573,0.0587,0.0592,0.0589,0.0543,0.0516,0.0469,0.0404,0.0339,0.0271,0.0133,0.0156,0.006,-0.0018,-0.0023,-0.0069,-0.0119,-0.0157,-0.015,-0.0102,-0.0102,-0.0101,-0.0101,0,0.0494,0.0544,0.0599,0.0609,0.0631,0.0645,0.0648,0.0624,0.0641,0.0596,0.0601,0.05,0.0458,0.0324,0.016,0.0147,0.0002,-0.0038,-0.0148,-0.0151,-0.0168,-0.0171,-0.0131,-0.0131,-0.0131,-0.0131,-0.013,0,0.0551,0.0594,0.0628,0.0657,0.0721,0.0707,0.076,0.0744,0.074,0.0774,0.067,0.067,0.0468,0.0358,0.0197,0.0017,0.0029,-0.0133,-0.0171,-0.0143,-0.0143,-0.0142,-0.0142,-0.0134,-0.0133,-0.0132,-0.0132,0,0.0599,0.0618,0.0687,0.0729,0.0748,0.079,0.0847,0.0883,0.0865,0.0905,0.0899,0.08,0.0653,0.0448,0.0229,0.0077,-0.0101,-0.0169,-0.0119,-0.015,-0.0236,-0.0232,-0.0296,-0.0297,-0.0298,-0.0299,-0.03,0,0.0628,0.0668,0.0747,0.0795,0.0817,0.0881,0.0926,0.0941,0.0994,0.099,0.102,0.0896,0.0828,0.0498,0.0204,-0.0074,-0.0109,-0.0234,-0.0259,-0.0222,-0.0253,-0.0247,-0.0241,-0.0256,-0.0256,-0.0257,-0.0257,0,0.0684,0.0707,0.0765,0.0869,0.0933,0.102,0.1091,0.1157,0.1175,0.1212,0.1227,0.117,0.0853,0.0571,0.0183,-0.001,-0.019,-0.025,-0.0227,-0.0214,-0.019,-0.0218,-0.0213,-0.026,-0.026,-0.0259,-0.0259,-0.0259,0.0721,0.0772,0.0849,0.0948,0.1029,0.1136,0.1224,0.1305,0.1399,0.1456,0.1387,0.1309,0.098,0.0487,0.0143,-0.0223,-0.0205,-0.0326,-0.0322,-0.0319,-0.0298,-0.0276,-0.0358,-0.0358,-0.0359,-0.0359,-0.0359,0,0.0768,0.0829,0.0925,0.1043,0.1142,0.118,0.1321,0.1412,0.1533,0.1562,0.157,0.1259,0.0928,0.0547,0.001,-0.0305,-0.0332,-0.0408,-0.0364,-0.0358,-0.0354,-0.0333,-0.0404,-0.0405,-0.0406,-0.0407,0,0,0.0793,0.0889,0.0942,0.1113,0.1203,0.135,0.144,0.1564,0.1628,0.1667,0.1617,0.1517,0.1047,0.066,0.0221,-0.0091,-0.0153,-0.0159,-0.0088,0.0021,0.0029,-0.0274,-0.0231,0,0,0,0,0]}],[{"header":{"parameterUnit":"m.s-1","parameterCategory":2,"la1":30.2991,"la2":30.254,"lo1":-89.0895,"lo2":-89.0444,"dy":0.0017,"dx":0.0017,"nx":28,"ny":28,"refTime":"2025-12-30T09:00:00:Z","depth":"4","parameterNumber":2,"parameterNumberName":"U-component_of_CURRENTS"},"data":[0,0,0,0,0,0,0,0,0,0,0,0,0,0,0,0,0,0,0,0,0,0,0,0,0,0,0,0,0,0,0,0,0,0,0,0,0,0,0,0,0,0,0,0,0,0,0,0,0,0,0,0,0,0,0,0,0,0,0.1724,0.1725,0,0.1798,0.1799,0.18,0.1867,0.1868,0.1869,0.187,0.1946,0.1947,0.1948,0,0,0,0,0,0,0,0,0,0,0,0,0,0.165,0.1651,0.1724,0.1725,0.1726,0.1798,0.1799,0.18,0.1867,0.1868,0.1869,0.187,0.1946,0.1947,0.1948,0,0,0,0,0,0,0,0,0,0,0,0,0,0.1698,0.1651,0.1724,0.1769,0.1774,0.1798,0.1799,0.18,0.1867,0.1868,0.1869,0.1871,0.1945,0.1947,0.1949,0.1931,0,0,0.1954,0.1955,0,0,0,0,0,0,0,0,0.1695,0.17,0.1761,0.1766,0.1771,0.1826,0.1801,0.1844,0.1866,0.183,0.187,0.1871,0.1906,0.1911,0.192,0.1935,0.1938,0.1954,0.1955,0.1956,0.1956,0,0,0,0,0,0,0,0.1692,0.1698,0.1752,0.1762,0.1769,0.1789,0.1797,0.181,0.1858,0.1833,0.1839,0.1849,0.1909,0.1918,0.1922,0.1939,0.1954,0.1956,0.1957,0.1957,0.2085,0.2087,0,0,0,0,0,0,0.1683,0.1694,0.175,0.1754,0.1737,0.1789,0.1798,0.1806,0.1858,0.1868,0.1847,0.1851,0.1914,0.192,0.1925,0.2024,0.1956,0.1957,0.1958,0.2083,0.2086,0.2088,0,0,0,0,0,0,0.1681,0.1687,0.1747,0.1727,0.1736,0.1789,0.1797,0.1807,0.1857,0.1869,0.1879,0.1892,0.1916,0.1923,0.1978,0.2023,0.1958,0.196,0.208,0.2084,0.2087,0.2147,0,0,0,0,0,0,0.1679,0.1686,0.171,0.1726,0.1737,0.1786,0.1796,0.1807,0.1859,0.1866,0.191,0.1916,0.1917,0.1975,0.198,0.2024,0.1961,0.2077,0.2082,0.2086,0.2142,0.2152,0.216,0,0,0,0,0,0.1676,0.1695,0.171,0.1718,0.1761,0.1788,0.1796,0.1836,0.186,0.1886,0.1924,0.1917,0.2007,0.1978,0.1983,0.2029,0.2075,0.208,0.2086,0.2137,0.215,0.216,0,0,0,0,0,0,0.1677,0.1704,0.1721,0.175,0.178,0.18,0.1834,0.1857,0.1906,0.1928,0.1938,0.1947,0.2016,0.2014,0.1983,0.2082,0.2043,0.205,0.2081,0.2093,0.2102,0.2099,0.1963,0,0,0,0,0,0.1686,0.1712,0.1735,0.1764,0.1781,0.1815,0.184,0.1867,0.1902,0.1927,0.1958,0.1996,0.2033,0.2058,0.2086,0.213,0.2125,0.2168,0.2177,0.2185,0.2188,0.2217,0.2228,0.2106,0.2106,0.2106,0,0,0.1695,0.1715,0.1731,0.1768,0.1796,0.1827,0.1835,0.1883,0.1924,0.1925,0.2003,0.2031,0.2054,0.2113,0.2144,0.2122,0.222,0.2191,0.2198,0.2197,0.2224,0.2235,0.2246,0.2109,0.2109,0.2108,0,0,0.1711,0.1744,0.1768,0.1796,0.1846,0.1865,0.1886,0.1931,0.1972,0.2035,0.2056,0.211,0.2164,0.2189,0.2206,0.2283,0.227,0.2305,0.2347,0.2376,0.2385,0.2394,0.2407,0.2416,0.2307,0.2308,0.2308,0,0.1726,0.1754,0.1781,0.1812,0.1844,0.1885,0.192,0.1961,0.2023,0.206,0.2075,0.2177,0.2198,0.2263,0.2298,0.2303,0.2313,0.2298,0.2386,0.2394,0.2401,0.2413,0.2422,0.2311,0.2311,0.231,0.231,0,0.1745,0.1786,0.1806,0.1857,0.1896,0.1935,0.1986,0.2042,0.2098,0.2134,0.2228,0.2262,0.2321,0.2344,0.2346,0.2421,0.2409,0.2393,0.235,0.2417,0.2426,0.2434,0.2316,0.2315,0.2314,0.2313,0,0,0.1725,0.1803,0.1816,0.185,0.1927,0.1953,0.2033,0.2102,0.2158,0.2234,0.2305,0.238,0.2408,0.2431,0.2448,0.2476,0.2542,0.2467,0.2467,0.2468,0.2605,0.2461,0.2456,0.2545,0.2547,0.2548,0.259,0,0.1737,0.1794,0.1838,0.1907,0.194,0.201,0.2074,0.215,0.2221,0.2299,0.2359,0.2435,0.2439,0.2482,0.2515,0.254,0.2568,0.2532,0.2551,0.2551,0.2404,0.2462,0.2554,0.2596,0.2598,0.26,0.26,0,0.1734,0.1778,0.1843,0.1932,0.1956,0.2011,0.2122,0.2185,0.2297,0.2357,0.2443,0.2491,0.2572,0.2556,0.2631,0.2613,0.262,0.2625,0.2626,0.2473,0.2422,0.2517,0.2615,0.2614,0.2613,0.2612,0.2611,0,0.1687,0.1778,0.1834,0.1865,0.1971,0.2031,0.2098,0.221,0.2282,0.2404,0.2472,0.2556,0.2625,0.2652,0.2688,0.267,0.2747,0.2714,0.2588,0.2578,0.2666,0.2657,0.2756,0.2755,0.2755,0.2755,0.2755,0,0.166,0.1709,0.1823,0.1851,0.1931,0.2016,0.2115,0.2195,0.2323,0.2395,0.2505,0.2568,0.2657,0.2715,0.2715,0.2681,0.2773,0.2601,0.2581,0.2692,0.2685,0.2672,0.2662,0.2757,0.2756,0.2756,0.2756,0,0.1594,0.1669,0.1738,0.1863,0.1911,0.1971,0.213,0.2185,0.2324,0.2426,0.2475,0.2614,0.2671,0.2735,0.278,0.2707,0.2688,0.2652,0.278,0.2765,0.249,0.2483,0.2497,0.2493,0.2489,0.2485,0.2482,0,0.1559,0.1591,0.1734,0.178,0.1846,0.1953,0.2018,0.2172,0.2232,0.2422,0.245,0.2581,0.2645,0.2595,0.2668,0.2656,0.2627,0.2598,0.2527,0.2486,0.2466,0.2465,0.2463,0.2476,0.2475,0.2474,0.2473,0,0.1493,0.1562,0.1618,0.1715,0.1795,0.1872,0.198,0.2018,0.2174,0.2326,0.2364,0.2398,0.2463,0.2487,0.251,0.2494,0.26,0.2555,0.2562,0.2495,0.246,0.2444,0.2447,0.2459,0.2461,0.2462,0.2463,0,0.1448,0.147,0.1555,0.1625,0.1719,0.1753,0.1828,0.1891,0.1975,0.2175,0.2177,0.2305,0.2428,0.2405,0.2421,0.2403,0.2356,0.2264,0.2285,0.2301,0.2219,0.2144,0.2032,0,0,0,0,0,0.1389,0.1397,0.1455,0.1518,0.1603,0.1656,0.178,0.1853,0.2008,0.1976,0.2074,0.2115,0.2145,0.2218,0.2159,0.234,0.2371,0.2261,0.2276,0.2383,0.2399,0.232,0,0,0,0,0,0,0.1346,0.1394,0.1412,0.1412,0.1431,0.1505,0.1574,0.1677,0.1673,0.1836,0.1863,0.1987,0.2051,0.2151,0.2116,0.2138,0.2104,0.2349,0.2344,0.2374,0.2388,0.2401,0.2326,0,0,0,0,0]},{"header":{"parameterUnit":"m.s-1","parameterCategory":2,"la1":30.2991,"la2":30.254,"lo1":-89.0895,"lo2":-89.0444,"dy":0.0017,"dx":0.0017,"nx":28,"ny":28,"refTime":"2025-12-30T09:00:00:Z","depth":"4","parameterNumber":3,"parameterNumberName":"V-component_of_CURRENTS"},"data":[0,0,0,0,0,0,0,0,0,0,0,0,0,0,0,0,0,0,0,0,0,0,0,0,0,0,0,0,0,0,0,0,0,0,0,0,0,0,0,0,0,0,0,0,0,0,0,0,0,0,0,0,0,0,0,0,0,0,0.0184,0.0184,0,0.014,0.014,0.0139,0.0103,0.0103,0.0102,0.0102,0.0059,0.0058,0.0057,0,0,0,0,0,0,0,0,0,0,0,0,0,0.0201,0.0201,0.0184,0.0184,0.0183,0.014,0.014,0.0139,0.0103,0.0103,0.0102,0.0102,0.0059,0.0058,0.0057,0,0,0,0,0,0,0,0,0,0,0,0,0,0.0178,0.0201,0.0184,0.0161,0.0158,0.014,0.0139,0.0139,0.0103,0.0103,0.0102,0.0102,0.0059,0.0058,0.0057,0.0058,0,0,0.0053,0.0052,0,0,0,0,0,0,0,0,0.018,0.0178,0.0165,0.0163,0.016,0.0127,0.0129,0.0112,0.0103,0.0123,0.0102,0.0102,0.0083,0.0079,0.0071,0.0056,0.0054,0.0053,0.0052,0.0051,0.0051,0,0,0,0,0,0,0,0.0181,0.0179,0.0166,0.0164,0.0161,0.014,0.0136,0.0126,0.0105,0.0121,0.0119,0.0115,0.0081,0.0072,0.007,0.0053,0.0053,0.0052,0.0051,0.005,0.0022,0.0022,0,0,0,0,0,0,0.0191,0.0181,0.0167,0.0165,0.017,0.014,0.0136,0.0137,0.0105,0.01,0.0116,0.0114,0.0075,0.0071,0.0068,0.0066,0.0051,0.005,0.0049,0.0022,0.0022,0.0022,0,0,0,0,0,0,0.0191,0.019,0.0169,0.0172,0.0168,0.0141,0.0142,0.0137,0.013,0.0101,0.0096,0.0115,0.0074,0.007,0.006,0.0064,0.0049,0.0048,0.0022,0.0022,0.0022,0.0063,0,0,0,0,0,0,0.0192,0.0191,0.0196,0.0173,0.0168,0.0166,0.0142,0.0136,0.0129,0.0126,0.0099,0.0094,0.0073,0.0062,0.0059,0.0062,0.0047,0.0022,0.0022,0.0022,0.0061,0.0064,0.0067,0,0,0,0,0,0.0193,0.0205,0.0197,0.0195,0.0176,0.0166,0.0162,0.014,0.013,0.0132,0.011,0.0095,0.006,0.0062,0.0057,0.006,0.0022,0.0022,0.0022,0.006,0.0064,0.0067,0,0,0,0,0,0,0.0213,0.0202,0.0192,0.02,0.0187,0.0161,0.0162,0.0146,0.0131,0.0129,0.0099,0.0094,0.0084,0.0068,0.007,0.0051,0.0037,0.0036,0.0067,0.007,0.0073,0.0082,0.0046,0,0,0,0,0,0.0221,0.0229,0.021,0.0216,0.0213,0.0189,0.0182,0.0169,0.0151,0.0144,0.0123,0.0101,0.0081,0.0073,0.0055,0.0051,0.0021,0.0047,0.005,0.0053,0.0056,0.0009,0.0008,0.0022,0.0022,0.0022,0,0,0.023,0.0225,0.0229,0.0221,0.021,0.0213,0.0184,0.0181,0.018,0.0143,0.0137,0.0112,0.0082,0.0072,0.0066,0.0059,0.0033,0.0053,0.0055,0.0057,0.0009,0.0007,0.0006,0.0022,0.0022,0.0022,0,0,0.0256,0.0249,0.0265,0.0259,0.0249,0.0234,0.0237,0.0216,0.0202,0.0195,0.0163,0.014,0.0119,0.0091,0.0076,0.0083,0.0049,0.0079,0.0101,0.0055,0.0053,0.0052,0.0016,0.0011,0.0081,0.0081,0.0081,0,0.0266,0.0283,0.0267,0.0279,0.0279,0.0249,0.0264,0.0246,0.0223,0.0214,0.0201,0.0151,0.0126,0.0101,0.0101,0.0089,0.0062,0.0093,0.0059,0.0056,0.0053,0.0017,0.0011,0.0083,0.0083,0.0082,0.0082,0,0.0301,0.0314,0.0323,0.0329,0.0328,0.0335,0.0313,0.0304,0.0285,0.0264,0.0236,0.0192,0.0163,0.0147,0.0128,0.0099,0.0085,0.0067,0.0052,0.0055,0.0016,0.0009,0.0086,0.0085,0.0084,0.0084,0,0,0.0324,0.0345,0.0348,0.0364,0.0357,0.0362,0.0358,0.0346,0.0345,0.0305,0.0295,0.0246,0.0217,0.0197,0.016,0.0117,0.0074,0.0091,0.0087,0.0059,-0.0021,-0.0019,-0.0027,0.005,0.0049,0.0048,-0.0039,0,0.0355,0.0396,0.0394,0.043,0.0448,0.0424,0.0424,0.0407,0.0384,0.0365,0.0301,0.0282,0.0237,0.0226,0.0173,0.0102,0.0056,0.01,-0.0022,-0.0025,-0.0021,-0.0035,0.0045,-0.0044,-0.0046,-0.0048,-0.0048,0,0.0389,0.0413,0.0458,0.0484,0.049,0.0504,0.0504,0.0501,0.0459,0.0439,0.0396,0.0352,0.0286,0.0248,0.0116,0.0147,0.007,0.0007,0.0001,-0.0016,-0.0037,-0.005,-0.0062,-0.0061,-0.006,-0.0059,-0.0058,0,0.0418,0.0458,0.05,0.0508,0.0528,0.0542,0.0547,0.0525,0.0535,0.049,0.0491,0.0397,0.0362,0.0245,0.0119,0.0118,-0.003,-0.0049,-0.0125,-0.0125,-0.0119,-0.0116,-0.0147,-0.0146,-0.0146,-0.0146,-0.0146,0,0.0448,0.0482,0.0521,0.0543,0.0593,0.0587,0.0628,0.0611,0.0603,0.062,0.0538,0.0523,0.036,0.0261,0.0133,-0.0016,-0.0023,-0.0124,-0.015,-0.0099,-0.0093,-0.0124,-0.012,-0.0149,-0.0149,-0.0148,-0.0147,0,0.0471,0.0495,0.0549,0.0589,0.0611,0.0644,0.0698,0.0719,0.0703,0.0721,0.0714,0.0618,0.0485,0.0319,0.0127,0.0018,-0.0132,-0.0184,-0.0108,-0.0128,-0.0201,-0.0194,-0.0277,-0.0278,-0.0278,-0.0279,-0.0279,0,0.0486,0.0517,0.0592,0.0634,0.066,0.0717,0.0755,0.0765,0.0796,0.0779,0.0788,0.0679,0.0593,0.0329,0.0141,-0.0108,-0.0145,-0.0225,-0.0226,-0.0198,-0.0216,-0.0208,-0.0201,-0.028,-0.028,-0.028,-0.0281,0,0.0511,0.0541,0.0587,0.0678,0.0738,0.0808,0.0866,0.0899,0.0906,0.0901,0.0855,0.0715,0.0562,0.0343,0.015,-0.0031,-0.0177,-0.0233,-0.0233,-0.0234,-0.0203,-0.0218,-0.021,-0.0283,-0.0282,-0.0282,-0.0282,0,0.053,0.0567,0.0635,0.0715,0.0795,0.0868,0.0901,0.0936,0.0962,0.0942,0.0923,0.0751,0.065,0.0382,0.0203,0.0026,-0.0023,-0.0087,-0.0096,-0.0096,-0.0023,0.0044,0.0016,0,0,0,0,0,0.0544,0.059,0.0667,0.0754,0.0835,0.089,0.0961,0.0984,0.1,0.098,0.0956,0.0815,0.0546,0.0426,0.0251,0.0178,-0.0063,-0.0036,-0.0143,-0.0294,-0.0292,-0.0237,0,0,0,0,0,0,0.0552,0.0623,0.0664,0.0772,0.0842,0.0934,0.0984,0.0999,0.0991,0.0979,0.0843,0.0771,0.0513,0.0654,0.0251,0.0195,0.0101,-0.016,-0.0164,-0.0296,-0.0293,-0.0291,-0.0234,0,0,0,0,0]}]]